| time (UTC) | temp F | wind direction | speed MPH | gust MPH | rain 1hr in | rain 24hr in | rain mn in | humidity % | barometer mb |
| 20260503231547 | 66 | 56 | 13.0 | 20.0 | 0.00 | 0.11 | 0.00 | 65 | 1010.2 |
| 20260503230038 | 68 | 32 | 10.0 | 17.0 | 0.00 | 0.11 | 0.00 | 63 | 1010.4 |
| 20260503224538 | 67 | 46 | 10.0 | 20.0 | 0.00 | 0.11 | 0.00 | 64 | 1010.3 |
| 20260503223042 | 67 | 41 | 16.0 | 24.0 | 0.00 | 0.11 | 0.00 | 63 | 1010.1 |
| 20260503221537 | 68 | 64 | 12.0 | 20.0 | 0.00 | 0.11 | 0.00 | 63 | 1010.0 |
| 20260503220038 | 70 | 54 | 11.0 | 19.0 | 0.00 | 0.11 | 0.00 | 60 | 1010.2 |
| 20260503214540 | 71 | 76 | 11.0 | 18.0 | 0.00 | 0.11 | 0.00 | 59 | 1010.0 |
| 20260503213046 | 72 | 63 | 9.0 | 15.0 | 0.00 | 0.11 | 0.00 | 58 | 1010.2 |
| 20260503211525 | 72 | 70 | 7.0 | 18.0 | 0.00 | 0.11 | 0.00 | 57 | 1010.5 |
| 20260503210019 | 72 | 89 | 8.0 | 20.0 | 0.00 | 0.11 | 0.00 | 57 | 1010.7 |
| 20260503204516 | 71 | 90 | 6.0 | 16.0 | 0.00 | 0.11 | 0.00 | 58 | 1010.9 |
| 20260503203021 | 72 | 67 | 6.0 | 15.0 | 0.00 | 0.11 | 0.00 | 60 | 1011.1 |
| 20260503201510 | 73 | 45 | 8.0 | 14.0 | 0.00 | 0.11 | 0.00 | 56 | 1011.3 |
| 20260503200005 | 72 | 75 | 5.0 | 16.0 | 0.00 | 0.11 | 0.00 | 57 | 1011.6 |
| 20260503194504 | 72 | 81 | 7.0 | 13.0 | 0.00 | 0.11 | 0.00 | 58 | 1012.1 |
| 20260503193101 | 71 | 57 | 6.0 | 11.0 | 0.00 | 0.11 | 0.00 | 58 | 1012.3 |
| 20260503191606 | 72 | 359 | 8.0 | 14.0 | 0.00 | 0.11 | 0.00 | 56 | 1012.4 |
| 20260503190058 | 73 | 154 | 3.0 | 12.0 | 0.00 | 0.11 | 0.00 | 48 | 1012.4 |
| 20260503184621 | 72 | 204 | 4.0 | 8.0 | 0.00 | 0.11 | 0.00 | 51 | 1012.7 |
| 20260503183059 | 71 | 59 | 3.0 | 8.0 | 0.00 | 0.11 | 0.00 | 52 | 1013.0 |
| 20260503181551 | 71 | 134 | 2.0 | 9.0 | 0.00 | 0.11 | 0.00 | 55 | 1013.3 |
| 20260503180048 | 69 | 163 | 3.0 | 9.0 | 0.00 | 0.11 | 0.00 | 59 | 1013.7 |
| 20260503174602 | 69 | 221 | 2.0 | 7.0 | 0.00 | 0.11 | 0.00 | 57 | 1014.0 |
| 20260503173048 | 69 | 237 | 2.0 | 5.0 | 0.00 | 0.11 | 0.00 | 61 | 1014.3 |
| 20260503171542 | 68 | 152 | 4.0 | 8.0 | 0.00 | 0.11 | 0.00 | 63 | 1014.4 |
| 20260503081555 | 58 | 87 | 4.0 | 9.0 | 0.00 | 0.11 | 0.00 | 76 | 1012.1 |
| 20260503071601 | 57 | 86 | 0.0 | 4.0 | 0.00 | 0.11 | 0.00 | 77 | 1012.2 |
| 20260503054534 | 59 | 70 | 6.0 | 10.0 | 0.00 | 0.11 | 0.11 | 74 | 1012.0 |
| 20260503053026 | 59 | 84 | 8.0 | 14.0 | 0.00 | 0.11 | 0.11 | 72 | 1011.6 |
| 20260503051536 | 59 | 73 | 7.0 | 15.0 | 0.00 | 0.11 | 0.11 | 74 | 1011.5 |
| 20260503050026 | 59 | 47 | 8.0 | 15.0 | 0.00 | 0.11 | 0.11 | 74 | 1011.3 |
| 20260503044525 | 59 | 48 | 8.0 | 15.0 | 0.00 | 0.11 | 0.11 | 75 | 1011.4 |
| 20260503043024 | 59 | 35 | 8.0 | 15.0 | 0.00 | 0.11 | 0.11 | 75 | 1011.5 |
| 20260503041529 | 59 | 56 | 9.0 | 16.0 | 0.00 | 0.11 | 0.11 | 75 | 1011.2 |
| 20260503040023 | 59 | 52 | 9.0 | 17.0 | 0.00 | 0.11 | 0.11 | 77 | 1011.4 |
| 20260503034523 | 59 | 62 | 11.0 | 21.0 | 0.00 | 0.11 | 0.11 | 76 | 1011.2 |
| 20260503033022 | 58 | 68 | 8.0 | 17.0 | 0.01 | 0.11 | 0.11 | 77 | 1011.5 |
| 20260503031520 | 58 | 35 | 11.0 | 21.0 | 0.11 | 0.11 | 0.11 | 78 | 1011.1 |
| 20260503030022 | 57 | 91 | 14.0 | 22.0 | 0.11 | 0.11 | 0.11 | 81 | 1010.6 |
| 20260503024515 | 56 | 83 | 17.0 | 27.0 | 0.11 | 0.11 | 0.11 | 82 | 1010.0 |
| 20260503023012 | 56 | 72 | 12.0 | 20.0 | 0.10 | 0.10 | 0.10 | 83 | 1009.6 |
| 20260503021512 | 58 | 50 | 13.0 | 21.0 | 0.00 | 0.00 | 0.00 | 76 | 1009.5 |
| 20260503020011 | 57 | 37 | 13.0 | 27.0 | 0.00 | 0.00 | 0.00 | 79 | 1009.7 |
| 20260503014509 | 58 | 89 | 13.0 | 23.0 | 0.00 | 0.00 | 0.00 | 78 | 1009.0 |
| 20260503013020 | 58 | 64 | 13.0 | 23.0 | 0.00 | 0.00 | 0.00 | 79 | 1009.1 |
| 20260503011506 | 57 | 92 | 14.0 | 28.0 | 0.00 | 0.00 | 0.00 | 81 | 1008.4 |
| 20260503010003 | 56 | 54 | 14.0 | 25.0 | 0.00 | 0.00 | 0.00 | 82 | 1008.2 |
| 20260503004602 | 57 | 73 | 12.0 | 24.0 | 0.00 | 0.00 | 0.00 | 80 | 1007.6 |
| 20260503003100 | 58 | 18 | 14.0 | 28.0 | 0.00 | 0.00 | 0.00 | 78 | 1007.0 |
| 20260503001555 | 60 | 65 | 16.0 | 27.0 | 0.00 | 0.00 | 0.00 | 77 | 1005.7 |
| 20260503000054 | 60 | 36 | 15.0 | 29.0 | 0.00 | 0.00 | 0.00 | 77 | 1005.7 |
| 20260502234611 | 60 | 77 | 15.0 | 27.0 | 0.00 | 0.00 | 0.00 | 76 | 1005.7 |
| 20260502233050 | 62 | 76 | 18.0 | 30.0 | 0.00 | 0.00 | 0.00 | 74 | 1005.6 |